"Pseudo-MPEC" for Solar Orbiter

Created 2020 Feb 12 15:31:44 UT using Find_Orb

Click here for an explanation of pseudo-MPECs

Pseudo-MPEC for the Centaur launching this spacecraft

 
 Astrometry: 
     SolO     C2020 02 10.79173903 29 36.520+27 04 33.84         18.7 GV     Z84
     SolO     C2020 02 10.79211503 29 36.325+27 04 35.86         19.4 GV     Z84
     SolO     C2020 02 10.79249003 29 36.205+27 04 37.73         18.8 GV     Z84
     SolO     C2020 02 10.79286603 29 36.011+27 04 39.68         19.0 GV     Z84
     SolO     C2020 02 10.79324103 29 35.845+27 04 41.37         19.4 GV     Z84
     SolO     C2020 02 10.79868403 29 33.445+27 05 03.12         19.0 GV     Z84
     SolO     C2020 02 10.79962203 29 33.026+27 05 06.74         19.1 GV     Z84
     SolO     C2020 02 10.80055803 29 32.604+27 05 10.65         19.2 GV     Z84
     SolO     C2020 02 10.80149503 29 32.230+27 05 13.96         19.0 GV     Z84
     SolO     C2020 02 10.80243203 29 31.876+27 05 17.36         19.2 GV     Z84
     SolO     C2020 02 10.80336903 29 31.451+27 05 20.75         19.3 GV     Z84
     SolO     C2020 02 10.80430803 29 31.101+27 05 24.25         18.8 GV     Z84
     SolO     C2020 02 10.80524403 29 30.694+27 05 27.44         18.9 GV     Z84
     SolO     C2020 02 10.81566303 29 26.661+27 05 59.71         19.4 GV     Z84
     SolO     C2020 02 10.81718003 29 26.125+27 06 03.85         19.6 GV     Z84
     SolO     C2020 02 10.81869503 29 25.602+27 06 07.68         18.9 GV     Z84
     SolO     C2020 02 10.82021103 29 25.083+27 06 11.23         19.3 GV     Z84
     SolO     C2020 02 10.82172803 29 24.560+27 06 15.24         19.5 GV     Z84
     SolO     C2020 02 10.82324403 29 24.051+27 06 18.75         19.5 GV     Z84
     SolO     C2020 02 10.82652003 29 22.948+27 06 25.86         19.1 GV     Z84
     SolO     C2020 02 10.82803803 29 22.491+27 06 28.85         19.4 GV     Z84
     SolO     C2020 02 10.84810203 29 17.321+27 06 56.61         19.2 GV     Z84
     SolO     C2020 02 10.84961703 29 16.992+27 06 58.06         19.5 GV     Z84
     SolO     C2020 02 10.85113203 29 16.702+27 06 58.93         19.6 GV     Z84
     SolO     C2020 02 10.85264803 29 16.410+27 06 59.76         19.5 GV     Z84
     SolO     C2020 02 10.85416303 29 16.175+27 07 01.70         18.7 GV     Z84
     SolO     C2020 02 10.85568103 29 15.938+27 07 01.83         19.7 GV     Z84
     SolO     C2020 02 10.85719703 29 15.658+27 07 02.26         19.6 GV     Z84
     SolO     C2020 02 10.85871103 29 15.425+27 07 02.67         19.8 GV     Z84
     SolO     C2020 02 10.88903003 29 13.638+27 06 52.56         19.0 GV     Z84
     SolO     C2020 02 10.89054803 29 13.668+27 06 50.83         19.6 GV     Z84
     SolO     C2020 02 10.89206403 29 13.753+27 06 49.73         19.3 GV     Z84
     SolO     C2020 02 10.89357903 29 13.849+27 06 47.88         19.6 GV     Z84
     SolO     C2020 02 10.89509603 29 13.933+27 06 46.20         19.5 GV     Z84
     SolO     C2020 02 10.89661203 29 14.031+27 06 44.52         19.3 GV     Z84
     SolO     C2020 02 10.89812803 29 14.133+27 06 43.08         19.6 GV     Z84
     SolO     C2020 02 10.89964403 29 14.312+27 06 40.89         19.3 GV     Z84
     SolO    KC2020 02 10.96377203 29 33.620+27 04 31.96         20.5 GV     Z84
     SolO    KC2020 02 10.97766003 29 41.203+27 03 55.85         20.6 GV     Z84
     SolO    KC2020 02 10.99154803 29 49.980+27 03 19.30         20.0 GV     Z84
     SolO    KC2020 02 11.00544203 29 59.866+27 02 43.71         20.4 GV     Z84
     SolO    KC2020 02 11.77316003 36 51.70 +27 39 59.3          19.7 G      C95
     SolO    KC2020 02 11.77822903 36 49.74 +27 40 01.3          19.7 G      C95
     SolO    KC2020 02 11.79663403 36 53.590+27 43 30.63         19.8 G      Z84
     SolO    KC2020 02 11.80663303 36 49.210+27 43 30.67         20.1 G      Z84
     SolO    KC2020 02 11.81663203 36 44.980+27 43 28.36         19.9 G      Z84
     SolO    KC2020 02 11.82531503 36 47.92 +27 37 02.1          19.8 G      J95
     SolO    KC2020 02 11.82811203 36 47.13 +27 37 02.1          19.8 G      J95
     SolO    KC2020 02 11.83418203 36 45.52 +27 37 00.7          20.3 G      J95
     SolO    KC2020 02 11.88221703 36 22.409+27 42 21.15         20.1 GV     Z84
     SolO    KC2020 02 11.90102403 36 18.006+27 41 48.21         20.1 GV     Z84
     SolO    KC2020 02 11.91854703 36 14.870+27 41 13.37         20.2 GV     Z84
     SolO    KC2020 02 11.93980503 36 12.357+27 40 27.16         19.9 GV     Z84

Station data:
(C95) SATINO Remote Observatory, Haute Provence  (N43.932042 E5.712390)
   France.  Observer J. Jahn. 0.60-m f/3.2 Newtonian reflector + CCD.
(J95) Great Shefford  (N51.474969 W1.447003)  UK.  Observer P. Birtwhistle.
   0.40-m f/6.0 Schmidt-Cassegrain + CCD.
(Z84) Calar Alto-Schmidt  (N37.223981 W2.548143)  Spain.  Observers M.
   Micheli, L. Conversi, D. Koschny. Measurers M. Micheli, D. Koschny, L.
   Conversi, E. Schwab. 0.8-m f/3 Schmidt + CCD.

Orbital elements (Earth escape):  Solar Orbiter
   Perigee 2020 Feb 10.202456 +/- 0.000509 TT =  4:51:32 (JD 2458889.702456)
Epoch 2020 Feb 10.5 TT = JDT 2458890.0                        Find_Orb
q  6597.756327 +/- 6.98             (J2000 equator)
H   29.7  G 0.15                    Peri.  288.031129 +/- 0.011
                                    Node   359.832848 +/- 0.011
e   1.49146612 +/- 0.000262         Incl.   32.942007 +/- 0.0011
From 53 observations 2020 Feb. 10-11 (27.6 hr); mean residual 0".261

Orbital elements (heliocentric):  Solar Orbiter
   Perihelion 2019 Oct 21.129551 +/- 0.0148 TT =  3:06:33 (JD 2458777.629551)
Epoch 2020 Feb 17.0 TT = JDT 2458896.5   Earth MOID: 0.0001   Ve: 0.0000
M 179.767930142 +/- 0.0012          (J2000 ecliptic)          Find_Orb
n   1.512301265 +/- 0.000199        Peri.  185.795713 +/- 0.0016
a   0.751698768 +/- 6.6e-5          Node   140.586515 +/- 0.00056
e   0.31551090 +/- 0.000116         Incl.    1.815581 +/- 0.0008
P   0.65/238.04d           H 29.7   G  0.15   U  7.0
q 0.514529609 +/- 0.000132    Q 0.988867928 +/- 1.32e-7
From 53 observations 2020 Feb. 10-11 (27.6 hr); mean residual 0".261

Orbital elements (Venus flyby):  Solar Orbiter
   Perivenus 2020 Dec 27.504204 +/- 0.0352 TT = 12:06:03 (JD 2459211.004204)
Epoch 2020 Dec 27.5 TT = JDT 2459211.0                        Find_Orb
q 71231.62753 +/- 78641             (J2000 ecliptic)
H   29.7  G 0.15                    Peri.   47.890825 +/- 43
                                    Node   273.609873 +/- 52
e  30.52949870 +/- 32.8             Incl.   10.789778 +/- 110
From 53 observations 2020 Feb. 10-11 (27.6 hr); mean residual 0".261
Residuals in arcseconds: 
200210 Z84 1.4m+ .447-    200210 Z84 .195+ .140+    200210 Z84 .143+ .088-
200210 Z84 .322- .088-    200210 Z84 .404- .176+    200210 Z84 .255+ .211+
200210 Z84 .345+ .135+    200210 Z84 .186- .110+    200210 Z84 .050+ .365-
200210 Z84 .023+ .445+    200210 Z84 5.8m+ .066-    200210 Z84 .161+ .616-
200210 Z84 .063+ .510+    200210 Z84 .292- .162+    200211 Z84 .095- .086+
200210 Z84 .047+ .153-    200210 Z84 .234- .073-    200211 C95 .261+ .185+
200210 Z84 .168- .175-    200210 Z84 .367- .233-    200211 C95 .332+ .763+
200210 Z84 .477- .163+    200210 Z84 .091+ .832+    200211 Z84 .109+ .059+
200210 Z84 .182- .039-    200210 Z84 .359+ .199+    200211 Z84 .159+ .124+
200210 Z84 .336+ .088-    200210 Z84 .122- .022-    200211 Z84 .177+ .194+
200210 Z84 .137- .085-    200210 Z84 .150- .152-    200211 J95 .174+ .087-
200210 Z84 .357+ .083+    200210 Z84 .225+ .146-    200211 J95 .224- .149+
200210 Z84 .029+ .013+    200210 Z84 .101- .430-    200211 J95 .258- .280-
200210 Z84 .139- .056+    200210 Z84 .118+ 6.6m-    200211 Z84 .444+ .112+
200210 Z84 .016+ .108+    200210 Z84 .295+ .256-    200211 Z84 .565+ .103+
200210 Z84 .201+ 4.2m+    200210 Z84 .120+ .257-    200211 Z84 .647+ .070+
200210 Z84 .308+ .235-    200210 Z84 .059- .184-    200211 Z84 .318+ .346+
200210 Z84 .230+ .129+    200210 Z84 .376- .203+

